SCP
0 0 -0 -0 -0 -0 -0 -0 -0 -0 -0 0 -0 0 0 0 0 0 0 0 0 0 0 0 0 0 0 0 0 0 0 -0 0 -0 0 0 0 -0 0 0 0 0 0
0 -0 0 0 -0 -0 -0 -0 -0 -0 -0 0 0 0 0 0 0 0 0 0 0 0 0 0 0 0 0 0 0 0 0 0 0 0 0 0 0 0 -0 0 0 0 0
0 0 -0 -0 0 -0 -0 -0 -0 -0 0 0 0 0 0 0 0 0 0 0 0 0 0 0 0 0 0 0 0 -0 -0 0 0 0 0 0 0 0 0 0 0 0 0
-0 -0 -0 -0 -0 0 0 -0 0 -0 0 0 0 0 0 0 0 -0 0 0 0 0 0 0 0 0 0 0 0 -0 -0 -0 0 0 0 0 0 -0 -0 0 -0 0 0
0 -0 0 0 -0 -0 -0 -0 -0 -0 -0 0 0 -0 0 0 0 0 -0 -0 -0 0 0 0 0 0 0 0 0 0 -0 -0 -0 -0 0 0 0 -0 -0 -0 0 0 -0
-0 -0 -0 0 -0 0 -0 -0 -0 -0 -0 0 0 -0 -0 0 0 -0 -0 -0 -0 0 0 0 0 0 0 -0 0 0 0 -0 -0 -0 -0 -0 -0 -0 -0 -0 -0 -0 0
-0 -0 0 0 0 -0 -0 -0 -0 -0 -0 -0 -0 -0 -0 -0 -0 0 -0 -0 -0 0 0 0 0 0 0 0 0 0 0 0 -0 0 0 -0 -0 -0 -0 -0 -0 -0 -0
0 -0 -0 0 0 0 0 -0 -0 -0 -0 -0 -0 0 0 -0 0 0 -0 -0 0 0 0 0 0 0 0 0 0 0 0 0 0 0 0 -0 -0 -0 -0 0 0 0 -0
0 0 0 0 1 0 -0 -0 -0 0 -0 0 -0 0 0 0 0 -0 0 0 0 -0 0 0 0 0 0 0 0 0 0 0 0 0 0 0 0 -0 -0 -0 -0 -0 -0
1 1 -0 0 1 0 -0 -0 -0 -0 -0 0 0 0 0 0 0 0 -0 -0 -0 -0 0 0 0 0 0 0 0 0 0 0 0 0 0 0 -0 0 0 0 -0 -0 -0
2 2 0 0 0 0 -0 -0 -0 -0 -0 0 0 -0 0 0 0 -0 -0 -0 -0 0 0 0 0 -0 -0 0 0 0 0 0 0 0 0 0 0 0 0 0 0 0 -0
2 1 0 -0 0 0 -0 -0 -0 -0 0 0 -0 -0 -0 -0 0 0 0 -0 0 0 0 0 0 -0 -0 -0 0 0 0 0 0 0 0 0 0 0 0 0 0 0 0
1 0 -0 -0 -0 0 -0 -0 0 0 -0 0 0 -0 -0 0 0 0 -0 -0 -0 0 -0 0 0 0 0 0 -0 -0 0 0 0 0 0 0 0 0 0 0 0 0 0
0 1 1 0 -0 -0 -0 -0 0 0 -0 -0 0 0 0 0 0 0 0 0 0 -0 -0 -0 -0 0 0 0 0 0 0 0 0 0 0 0 0 0 0 0 0 0 0
1 0 0 0 0 -0 -0 -0 0 -0 0 -0 -0 0 0 0 0 0 0 0 0 0 -0 -0 -0 -0 -0 0 0 0 0 0 0 0 0 0 0 -0 0 0 0 0 0
1 0 0 -0 -0 -0 -0 -0 -0 -0 -0 -0 0 0 0 0 0 0 0 0 0 0 0 0 0 0 0 0 0 0 0 0 0 0 0 0 0 0 0 0 0 0 0
0 0 0 -0 -0 -0 -0 -0 -0 -0 -0 -0 0 0 0 0 0 0 0 0 0 0 0 0 0 0 0 0 0 0 0 0 0 0 0 0 0 0 0 0 0 0 0
1 1 0 0 -0 -0 -0 0 0 -0 0 -0 0 0 0 0 0 0 0 0 0 0 0 0 0 0 0 0 0 0 0 0 0 0 0 0 0 0 0 0 0 0 0
1 1 0 0 0 0 0 0 0 0 0 0 0 0 0 0 0 0 0 0 -0 0 0 0 0 0 0 0 0 0 0 0 0 0 0 0 0 0 0 0 0 0 0
1 1 1 1 0 1 1 0 1 1 1 1 0 0 0 0 0 0 -0 0 0 0 0 0 0 0 0 0 0 0 0 0 0 0 0 0 0 0 0 0 0 0 0
1 1 1 1 0 1 1 1 1 1 2 1 1 1 0 1 0 -0 0 0 0 0 0 0 0 0 0 0 0 0 0 0 0 0 0 0 0 0 0 0 0 0 0
2 2 2 3 2 2 2 3 3 3 2 2 2 1 1 0 0 -0 0 0 0 0 0 0 0 0 0 0 0 0 0 0 0 0 0 0 0 0 0 0 0 0 0
3 3 3 4 4 3 4 5 4 3 2 0 0 0 0 0 0 0 0 0 0 0 0 0 0 0 0 0 0 0 0 0 0 0 0 0 0 0 0 0 0 0 0
2 2 3 3 3 3 3 2 2 1 1 0 0 0 0 0 0 0 0 0 0 0 0 0 0 0 0 0 0 0 0 0 0 0 0 0 0 0 0 0 0 0 0
2 3 3 2 1 1 1 1 2 1 1 0 0 0 0 0 0 0 0 0 0 0 0 0 0 0 0 0 0 0 0 0 0 0 0 0 0 0 0 0 0 0 0
0 1 1 1 1 1 1 1 1 1 1 0 0 0 0 0 0 0 0 0 0 0 0 0 0 0 0 0 0 0 0 -0 0 0 0 0 0 0 0 0 0 0 0
Wind_Speed_500mb
46 46 60 55 67 69 66 77 74 72 71 72 67 63 58 47 49 44 35 27 24 21 23 20 21 20 17 19 29 25 25 22 23 18 17 18 21 14 16 22 30 36 38
41 35 68 70 64 69 68 81 80 76 79 79 75 72 60 57 57 50 41 33 32 29 24 22 23 25 24 22 29 30 23 25 27 19 20 16 19 21 18 22 24 36 44
52 42 72 65 72 71 74 72 83 82 81 81 77 73 57 50 53 52 44 35 30 33 29 24 25 24 28 26 24 33 29 24 24 23 11 9 10 22 19 22 26 31 41
74 51 65 64 74 68 74 73 76 78 78 75 78 75 66 57 51 49 52 43 31 27 29 26 24 26 30 30 34 39 33 30 26 21 22 10 11 16 19 27 27 25 35
82 75 39 55 66 59 61 68 66 68 65 69 72 66 62 52 52 49 54 53 44 40 27 27 28 31 31 26 29 38 35 35 30 24 16 19 16 17 11 21 32 32 31
84 81 53 44 58 48 50 54 60 61 55 46 64 63 60 50 48 55 54 50 39 31 30 27 28 30 35 30 28 38 35 40 33 27 24 19 25 21 18 19 24 31 29
66 75 57 46 53 55 58 60 56 51 44 40 49 59 63 59 51 46 43 38 28 23 22 24 27 24 26 31 29 37 37 40 38 32 26 21 17 12 20 12 14 20 29
44 51 58 43 40 52 54 53 50 41 46 46 47 47 49 47 38 36 31 34 26 19 15 7 22 24 20 25 32 39 38 36 42 32 28 22 24 17 11 6 13 17 26
52 58 61 49 45 40 42 40 32 33 37 32 36 36 38 40 36 24 23 24 18 15 17 7 18 16 27 25 27 39 43 35 37 39 34 27 21 24 23 18 9 12 25
48 50 53 52 51 35 29 27 27 32 34 37 37 36 34 29 27 24 18 16 21 19 15 8 10 8 20 20 25 29 41 39 38 36 41 39 28 26 21 18 16 14 19
68 66 62 52 41 33 27 25 37 42 42 35 33 29 29 26 24 28 21 19 14 14 17 15 14 5 17 13 20 27 35 39 37 34 34 32 29 28 28 24 21 19 19
73 74 72 63 53 44 41 37 44 44 36 34 29 23 28 33 31 34 30 22 16 16 14 18 20 18 15 16 13 21 28 28 31 32 33 29 25 25 33 32 30 25 22
70 73 69 64 58 51 46 40 37 42 38 36 30 27 27 30 29 32 27 24 26 20 17 14 20 23 24 23 22 19 16 19 19 22 28 27 28 27 27 34 34 36 31
75 76 73 65 55 49 50 47 37 40 37 37 37 36 32 34 34 32 29 26 20 23 18 16 15 17 17 19 19 20 20 18 21 20 21 23 24 25 29 34 33 33 34
79 80 76 68 57 55 54 50 40 42 44 44 45 37 35 36 33 34 34 27 29 25 21 18 18 17 15 16 16 18 20 18 15 17 15 14 15 17 20 24 26 26 26
80 77 75 71 63 61 62 56 50 46 45 46 41 39 37 41 37 36 29 27 30 30 25 22 19 21 19 18 17 17 18 19 19 21 20 16 15 14 14 16 18 19 19
81 77 77 73 67 65 64 61 56 48 48 44 45 45 41 45 38 34 27 25 26 25 24 22 20 20 21 22 23 27 29 27 22 21 24 26 25 24 22 21 21 22 23
81 74 76 75 69 66 68 62 61 53 54 53 52 48 48 47 48 39 28 26 28 28 26 24 20 17 17 20 22 26 31 31 25 22 23 25 25 26 26 26 28 28 29
72 71 72 72 71 70 68 68 67 59 59 60 59 50 48 48 51 46 39 34 33 31 26 22 20 15 15 15 21 27 30 34 30 26 20 15 14 16 20 20 19 22 26
64 62 63 75 76 73 69 69 68 67 68 68 63 55 48 46 51 52 46 39 35 30 26 25 26 21 16 14 20 26 32 34 31 25 18 12 9 8 12 12 11 13 16
68 57 64 73 79 72 73 72 70 79 74 67 62 57 53 59 57 49 47 44 41 36 34 38 34 24 19 15 19 24 27 28 29 25 19 15 11 12 14 12 12 13 15
35 60 62 69 76 76 76 77 74 73 59 68 58 49 59 57 55 50 49 44 37 32 38 38 34 26 19 19 14 11 22 31 28 25 17 14 14 16 14 11 10 11 13
3 8 46 55 62 69 73 76 73 61 51 57 54 49 64 62 59 57 48 42 31 33 39 39 35 30 30 27 23 21 17 23 23 29 23 16 15 13 9 7 9 10 11
3 7 1 20 34 44 55 56 51 39 40 53 80 48 54 61 58 50 43 36 32 33 37 38 40 36 38 33 23 16 9 9 14 16 19 18 11 9 10 8 8 9 13
3 5 11 9 16 21 24 33 42 44 42 73 66 62 56 56 57 47 40 36 31 29 28 30 33 29 29 30 33 17 13 7 9 18 18 18 17 13 12 12 9 6 7
2 2 3 9 11 14 22 23 25 32 45 53 48 40 45 51 49 48 47 39 37 35 32 32 35 29 19 24 22 20 15 14 15 22 24 24 26 24 24 22 18 12 9
Wind_Direction_500mb
52 327 244 223 213 219 222 218 214 211 208 207 209 209 206 220 227 234 240 239 250 266 278 283 294 290 270 239 230 243 240 248 244 231 215 204 197 207 222 228 214 205 207
89 236 224 225 227 225 225 219 220 215 212 211 215 214 220 225 235 237 241 247 257 265 268 286 291 279 264 240 231 237 245 240 239 235 207 183 189 193 201 211 218 212 211
183 218 215 222 225 226 224 223 218 216 212 213 217 218 213 219 227 232 241 252 265 271 277 290 290 271 257 248 238 233 240 230 235 222 205 191 175 188 198 201 202 208 211
208 211 219 216 213 223 225 225 217 218 214 220 222 225 220 232 236 239 237 242 256 268 270 280 284 269 262 259 249 227 225 220 226 224 205 217 224 178 180 203 202 201 214
201 209 215 219 219 223 226 224 215 223 225 230 225 226 226 232 243 249 239 243 255 264 268 279 270 264 259 260 222 211 212 219 218 211 209 209 194 198 180 197 204 210 208
217 221 221 204 213 221 227 230 227 229 233 230 227 226 229 232 251 241 248 240 252 260 274 278 268 261 255 240 218 211 212 212 212 220 208 214 219 217 206 211 204 220 212
214 224 221 219 220 223 226 229 227 233 236 232 229 231 234 238 245 242 230 236 248 260 268 269 270 262 241 233 217 211 213 214 212 219 218 211 220 224 206 201 210 194 208
211 222 221 211 203 210 217 224 228 231 238 230 224 223 227 229 218 213 227 236 239 251 258 283 272 241 233 229 216 208 214 214 213 221 219 221 211 205 231 228 207 199 205
214 214 202 205 200 197 204 212 215 216 218 205 200 197 188 188 197 214 221 218 219 207 239 267 319 264 217 214 217 216 215 214 214 217 221 225 211 223 222 229 220 222 209
205 199 188 185 191 186 186 191 194 189 175 165 166 174 182 193 201 211 231 221 225 224 224 256 309 313 186 197 201 214 217 219 222 220 226 231 224 216 223 236 224 227 240
190 188 183 181 185 181 180 184 176 172 162 162 166 173 185 193 204 213 217 186 186 204 219 228 222 126 135 146 188 201 217 219 218 222 222 219 216 223 220 225 232 236 239
188 188 183 183 185 180 183 181 172 170 175 169 172 169 183 191 199 205 190 200 212 205 204 212 199 185 168 139 164 198 208 207 216 217 221 221 217 223 224 229 234 240 240
178 180 182 182 184 183 183 180 173 172 178 176 175 178 188 187 184 185 189 188 197 181 161 178 177 175 186 189 191 193 183 201 207 219 226 237 239 237 236 240 247 246 243
186 186 180 184 186 188 186 181 172 175 173 180 185 193 189 185 185 185 185 194 197 190 183 180 169 168 175 182 187 176 167 177 193 208 216 226 230 234 237 242 252 252 248
185 188 185 187 186 191 193 191 180 183 178 182 192 196 189 192 190 191 187 197 202 202 218 220 190 189 186 186 184 183 175 167 171 177 187 190 200 219 230 239 243 248 251
194 194 190 187 190 193 195 195 191 187 186 192 197 189 189 186 190 187 193 197 199 205 209 203 204 209 211 213 211 222 236 241 242 232 227 229 242 254 260 257 250 247 247
200 198 195 193 195 198 199 199 196 194 196 202 197 189 197 196 200 200 198 201 203 210 212 214 214 216 217 221 226 232 239 243 244 243 241 250 260 270 265 253 251 254 254
203 206 202 198 202 203 203 202 199 203 199 203 197 195 200 209 207 202 207 211 214 219 218 220 222 226 230 231 231 224 227 233 233 240 250 261 267 267 261 260 260 259 260
206 213 213 208 206 205 205 201 201 203 201 204 200 205 206 205 203 206 215 211 211 212 219 230 243 250 261 245 216 213 214 224 229 239 248 256 257 270 269 269 264 250 247
211 210 216 210 209 208 205 201 201 198 202 203 205 214 206 212 213 218 214 211 206 212 226 238 240 256 261 236 217 209 211 223 235 241 241 238 268 282 297 286 259 244 238
211 214 213 217 214 209 205 204 206 203 205 203 209 216 216 219 214 215 214 209 208 218 229 238 244 244 233 220 222 213 216 225 231 245 235 248 266 298 304 289 272 254 244
207 216 218 218 216 212 210 208 208 208 210 206 201 214 225 221 217 220 212 210 208 226 233 231 232 226 202 175 180 214 226 226 240 247 238 244 272 293 289 272 255 236 231
119 186 226 226 224 220 215 214 215 220 211 204 202 227 220 226 232 226 223 210 219 229 230 235 236 237 231 235 226 214 229 238 228 235 239 252 275 274 259 234 211 207 213
89 73 87 228 233 225 227 230 230 227 248 242 211 227 214 220 219 218 209 226 232 223 231 239 239 235 238 220 189 187 180 227 234 242 255 266 255 227 215 207 213 232 236
153 203 174 192 227 231 235 243 246 253 241 252 243 227 222 216 209 212 221 212 226 242 242 248 247 237 221 221 213 188 189 242 286 281 260 252 239 229 215 214 216 215 235
211 257 255 257 264 265 258 243 239 233 244 248 236 212 210 209 208 205 197 210 215 218 223 222 216 221 217 208 221 211 220 257 282 275 265 252 229 225 223 224 227 228 252
Wind_Speed_850mb
46 46 60 55 67 69 66 77 74 72 71 72 67 63 58 47 49 44 35 27 24 21 23 20 21 20 17 19 29 25 25 22 23 18 17 18 21 14 16 22 30 36 38
41 35 68 70 64 69 68 81 80 76 79 79 75 72 60 57 57 50 41 33 32 29 24 22 23 25 24 22 29 30 23 25 27 19 20 16 19 21 18 22 24 36 44
52 42 72 65 72 71 74 72 83 82 81 81 77 73 57 50 53 52 44 35 30 33 29 24 25 24 28 26 24 33 29 24 24 23 11 9 10 22 19 22 26 31 41
74 51 65 64 74 68 74 73 76 78 78 75 78 75 66 57 51 49 52 43 31 27 29 26 24 26 30 30 34 39 33 30 26 21 22 10 11 16 19 27 27 25 35
82 75 39 55 66 59 61 68 66 68 65 69 72 66 62 52 52 49 54 53 44 40 27 27 28 31 31 26 29 38 35 35 30 24 16 19 16 17 11 21 32 32 31
84 81 53 44 58 48 50 54 60 61 55 46 64 63 60 50 48 55 54 50 39 31 30 27 28 30 35 30 28 38 35 40 33 27 24 19 25 21 18 19 24 31 29
66 75 57 46 53 55 58 60 56 51 44 40 49 59 63 59 51 46 43 38 28 23 22 24 27 24 26 31 29 37 37 40 38 32 26 21 17 12 20 12 14 20 29
44 51 58 43 40 52 54 53 50 41 46 46 47 47 49 47 38 36 31 34 26 19 15 7 22 24 20 25 32 39 38 36 42 32 28 22 24 17 11 6 13 17 26
52 58 61 49 45 40 42 40 32 33 37 32 36 36 38 40 36 24 23 24 18 15 17 7 18 16 27 25 27 39 43 35 37 39 34 27 21 24 23 18 9 12 25
48 50 53 52 51 35 29 27 27 32 34 37 37 36 34 29 27 24 18 16 21 19 15 8 10 8 20 20 25 29 41 39 38 36 41 39 28 26 21 18 16 14 19
68 66 62 52 41 33 27 25 37 42 42 35 33 29 29 26 24 28 21 19 14 14 17 15 14 5 17 13 20 27 35 39 37 34 34 32 29 28 28 24 21 19 19
73 74 72 63 53 44 41 37 44 44 36 34 29 23 28 33 31 34 30 22 16 16 14 18 20 18 15 16 13 21 28 28 31 32 33 29 25 25 33 32 30 25 22
70 73 69 64 58 51 46 40 37 42 38 36 30 27 27 30 29 32 27 24 26 20 17 14 20 23 24 23 22 19 16 19 19 22 28 27 28 27 27 34 34 36 31
75 76 73 65 55 49 50 47 37 40 37 37 37 36 32 34 34 32 29 26 20 23 18 16 15 17 17 19 19 20 20 18 21 20 21 23 24 25 29 34 33 33 34
79 80 76 68 57 55 54 50 40 42 44 44 45 37 35 36 33 34 34 27 29 25 21 18 18 17 15 16 16 18 20 18 15 17 15 14 15 17 20 24 26 26 26
80 77 75 71 63 61 62 56 50 46 45 46 41 39 37 41 37 36 29 27 30 30 25 22 19 21 19 18 17 17 18 19 19 21 20 16 15 14 14 16 18 19 19
81 77 77 73 67 65 64 61 56 48 48 44 45 45 41 45 38 34 27 25 26 25 24 22 20 20 21 22 23 27 29 27 22 21 24 26 25 24 22 21 21 22 23
81 74 76 75 69 66 68 62 61 53 54 53 52 48 48 47 48 39 28 26 28 28 26 24 20 17 17 20 22 26 31 31 25 22 23 25 25 26 26 26 28 28 29
72 71 72 72 71 70 68 68 67 59 59 60 59 50 48 48 51 46 39 34 33 31 26 22 20 15 15 15 21 27 30 34 30 26 20 15 14 16 20 20 19 22 26
64 62 63 75 76 73 69 69 68 67 68 68 63 55 48 46 51 52 46 39 35 30 26 25 26 21 16 14 20 26 32 34 31 25 18 12 9 8 12 12 11 13 16
68 57 64 73 79 72 73 72 70 79 74 67 62 57 53 59 57 49 47 44 41 36 34 38 34 24 19 15 19 24 27 28 29 25 19 15 11 12 14 12 12 13 15
35 60 62 69 76 76 76 77 74 73 59 68 58 49 59 57 55 50 49 44 37 32 38 38 34 26 19 19 14 11 22 31 28 25 17 14 14 16 14 11 10 11 13
3 8 46 55 62 69 73 76 73 61 51 57 54 49 64 62 59 57 48 42 31 33 39 39 35 30 30 27 23 21 17 23 23 29 23 16 15 13 9 7 9 10 11
3 7 1 20 34 44 55 56 51 39 40 53 80 48 54 61 58 50 43 36 32 33 37 38 40 36 38 33 23 16 9 9 14 16 19 18 11 9 10 8 8 9 13
3 5 11 9 16 21 24 33 42 44 42 73 66 62 56 56 57 47 40 36 31 29 28 30 33 29 29 30 33 17 13 7 9 18 18 18 17 13 12 12 9 6 7
2 2 3 9 11 14 22 23 25 32 45 53 48 40 45 51 49 48 47 39 37 35 32 32 35 29 19 24 22 20 15 14 15 22 24 24 26 24 24 22 18 12 9
Wind_Direction_850mb
52 327 244 223 213 219 222 218 214 211 208 207 209 209 206 220 227 234 240 239 250 266 278 283 294 290 270 239 230 243 240 248 244 231 215 204 197 207 222 228 214 205 207
89 236 224 225 227 225 225 219 220 215 212 211 215 214 220 225 235 237 241 247 257 265 268 286 291 279 264 240 231 237 245 240 239 235 207 183 189 193 201 211 218 212 211
183 218 215 222 225 226 224 223 218 216 212 213 217 218 213 219 227 232 241 252 265 271 277 290 290 271 257 248 238 233 240 230 235 222 205 191 175 188 198 201 202 208 211
208 211 219 216 213 223 225 225 217 218 214 220 222 225 220 232 236 239 237 242 256 268 270 280 284 269 262 259 249 227 225 220 226 224 205 217 224 178 180 203 202 201 214
201 209 215 219 219 223 226 224 215 223 225 230 225 226 226 232 243 249 239 243 255 264 268 279 270 264 259 260 222 211 212 219 218 211 209 209 194 198 180 197 204 210 208
217 221 221 204 213 221 227 230 227 229 233 230 227 226 229 232 251 241 248 240 252 260 274 278 268 261 255 240 218 211 212 212 212 220 208 214 219 217 206 211 204 220 212
214 224 221 219 220 223 226 229 227 233 236 232 229 231 234 238 245 242 230 236 248 260 268 269 270 262 241 233 217 211 213 214 212 219 218 211 220 224 206 201 210 194 208
211 222 221 211 203 210 217 224 228 231 238 230 224 223 227 229 218 213 227 236 239 251 258 283 272 241 233 229 216 208 214 214 213 221 219 221 211 205 231 228 207 199 205
214 214 202 205 200 197 204 212 215 216 218 205 200 197 188 188 197 214 221 218 219 207 239 267 319 264 217 214 217 216 215 214 214 217 221 225 211 223 222 229 220 222 209
205 199 188 185 191 186 186 191 194 189 175 165 166 174 182 193 201 211 231 221 225 224 224 256 309 313 186 197 201 214 217 219 222 220 226 231 224 216 223 236 224 227 240
190 188 183 181 185 181 180 184 176 172 162 162 166 173 185 193 204 213 217 186 186 204 219 228 222 126 135 146 188 201 217 219 218 222 222 219 216 223 220 225 232 236 239
188 188 183 183 185 180 183 181 172 170 175 169 172 169 183 191 199 205 190 200 212 205 204 212 199 185 168 139 164 198 208 207 216 217 221 221 217 223 224 229 234 240 240
178 180 182 182 184 183 183 180 173 172 178 176 175 178 188 187 184 185 189 188 197 181 161 178 177 175 186 189 191 193 183 201 207 219 226 237 239 237 236 240 247 246 243
186 186 180 184 186 188 186 181 172 175 173 180 185 193 189 185 185 185 185 194 197 190 183 180 169 168 175 182 187 176 167 177 193 208 216 226 230 234 237 242 252 252 248
185 188 185 187 186 191 193 191 180 183 178 182 192 196 189 192 190 191 187 197 202 202 218 220 190 189 186 186 184 183 175 167 171 177 187 190 200 219 230 239 243 248 251
194 194 190 187 190 193 195 195 191 187 186 192 197 189 189 186 190 187 193 197 199 205 209 203 204 209 211 213 211 222 236 241 242 232 227 229 242 254 260 257 250 247 247
200 198 195 193 195 198 199 199 196 194 196 202 197 189 197 196 200 200 198 201 203 210 212 214 214 216 217 221 226 232 239 243 244 243 241 250 260 270 265 253 251 254 254
203 206 202 198 202 203 203 202 199 203 199 203 197 195 200 209 207 202 207 211 214 219 218 220 222 226 230 231 231 224 227 233 233 240 250 261 267 267 261 260 260 259 260
206 213 213 208 206 205 205 201 201 203 201 204 200 205 206 205 203 206 215 211 211 212 219 230 243 250 261 245 216 213 214 224 229 239 248 256 257 270 269 269 264 250 247
211 210 216 210 209 208 205 201 201 198 202 203 205 214 206 212 213 218 214 211 206 212 226 238 240 256 261 236 217 209 211 223 235 241 241 238 268 282 297 286 259 244 238
211 214 213 217 214 209 205 204 206 203 205 203 209 216 216 219 214 215 214 209 208 218 229 238 244 244 233 220 222 213 216 225 231 245 235 248 266 298 304 289 272 254 244
207 216 218 218 216 212 210 208 208 208 210 206 201 214 225 221 217 220 212 210 208 226 233 231 232 226 202 175 180 214 226 226 240 247 238 244 272 293 289 272 255 236 231
119 186 226 226 224 220 215 214 215 220 211 204 202 227 220 226 232 226 223 210 219 229 230 235 236 237 231 235 226 214 229 238 228 235 239 252 275 274 259 234 211 207 213
89 73 87 228 233 225 227 230 230 227 248 242 211 227 214 220 219 218 209 226 232 223 231 239 239 235 238 220 189 187 180 227 234 242 255 266 255 227 215 207 213 232 236
153 203 174 192 227 231 235 243 246 253 241 252 243 227 222 216 209 212 221 212 226 242 242 248 247 237 221 221 213 188 189 242 286 281 260 252 239 229 215 214 216 215 235
211 257 255 257 264 265 258 243 239 233 244 248 236 212 210 209 208 205 197 210 215 218 223 222 216 221 217 208 221 211 220 257 282 275 265 252 229 225 223 224 227 228 252